Hourly Weather Bolshie Kokuzy

Today, 20 June, Sunday

Time Temperature Precipitation Wind Pressure Humidity
00:00 +18°C° 0 mm 3 mps 759 mmHg 90%
01:00 +18°C° 0 mm 3 mps 759 mmHg 91%
02:00 +18°C° 0 mm 3 mps 760 mmHg 91%
03:00 +18°C° 0 mm 3 mps 760 mmHg 91%
04:00 +19°C° 0 mm 3 mps 760 mmHg 88%
05:00 +20°C° 0 mm 3 mps 760 mmHg 84%
06:00 +21°C° 0 mm 3 mps 760 mmHg 81%
07:00 +24°C° 0 mm 3 mps 760 mmHg 75%
08:00 +25°C° 0 mm 4 mps 760 mmHg 70%
09:00 +27°C° 0 mm 4 mps 760 mmHg 66%
10:00 +28°C° 0 mm 4 mps 760 mmHg 63%
11:00 +29°C° 0 mm 4 mps 760 mmHg 59%
12:00 +30°C° 0 mm 4 mps 760 mmHg 56%
13:00 +30°C° 0 mm 4 mps 760 mmHg 56%
14:00 +30°C° 0 mm 3 mps 760 mmHg 55%
15:00 +30°C° 0 mm 3 mps 759 mmHg 55%
16:00 +30°C° 0 mm 3 mps 759 mmHg 60%
17:00 +29°C° 0 mm 3 mps 759 mmHg 64%
18:00 +29°C° 0 mm 3 mps 759 mmHg 69%
19:00 +27°C° 0 mm 2 mps 759 mmHg 74%
20:00 +25°C° 0 mm 2 mps 759 mmHg 79%
21:00 +24°C° 0 mm 1 mps 759 mmHg 84%
22:00 +23°C° 0 mm 1 mps 759 mmHg 86%
23:00 +23°C° 0 mm 1 mps 760 mmHg 87%

Tomorrow, 21 June, Monday

Time Temperature Precipitation Wind Pressure Humidity
00:00 +22°C° 0 mm 1 mps 760 mmHg 88%
01:00 +22°C° 0 mm 1 mps 760 mmHg 89%
02:00 +22°C° 0 mm 1 mps 760 mmHg 89%
03:00 +21°C° 0 mm 1 mps 760 mmHg 89%
04:00 +21°C° 0 mm 2 mps 760 mmHg 87%
05:00 +23°C° 0 mm 2 mps 760 mmHg 84%
06:00 +24°C° 0 mm 2 mps 760 mmHg 81%
07:00 +25°C° 0 mm 3 mps 760 mmHg 76%
08:00 +27°C° 0 mm 3 mps 760 mmHg 71%
09:00 +28°C° 0 mm 3 mps 760 mmHg 65%
10:00 +29°C° 0 mm 3 mps 760 mmHg 62%
11:00 +30°C° 0 mm 3 mps 760 mmHg 59%
12:00 +31°C° 0 mm 3 mps 760 mmHg 55%
13:00 +31°C° 0 mm 3 mps 760 mmHg 54%
14:00 +31°C° 0 mm 3 mps 760 mmHg 52%
15:00 +31°C° 0 mm 3 mps 760 mmHg 51%
16:00 +31°C° 0 mm 2 mps 759 mmHg 55%
17:00 +30°C° 0 mm 2 mps 759 mmHg 60%
18:00 +30°C° 0 mm 2 mps 759 mmHg 65%
19:00 +28°C° 0 mm 2 mps 759 mmHg 69%
20:00 +26°C° 0 mm 1 mps 759 mmHg 73%
21:00 +25°C° 0 mm 1 mps 760 mmHg 77%
22:00 +24°C° 0 mm 1 mps 760 mmHg 80%
23:00 +24°C° 0 mm 1 mps 760 mmHg 83%

Day after tomorrow, 22 June, Tuesday

Time Temperature Precipitation Wind Pressure Humidity
00:00 +23°C° 0 mm 1 mps 760 mmHg 86%
01:00 +23°C° 0 mm 1 mps 760 mmHg 87%
02:00 +23°C° 0 mm 2 mps 760 mmHg 89%
03:00 +21°C° 0 mm 2 mps 760 mmHg 90%
04:00 +23°C° 0 mm 2 mps 760 mmHg 87%
05:00 +24°C° 0 mm 2 mps 760 mmHg 84%
06:00 +25°C° 0 mm 2 mps 760 mmHg 81%
07:00 +27°C° 0.1 mm 2 mps 760 mmHg 75%
08:00 +28°C° 0.1 mm 2 mps 760 mmHg 70%
09:00 +29°C° 0.1 mm 2 mps 760 mmHg 65%
10:00 +30°C° 0.3 mm 3 mps 760 mmHg 62%
11:00 +31°C° 0.3 mm 3 mps 760 mmHg 58%
12:00 +31°C° 0.3 mm 3 mps 760 mmHg 55%
13:00 +33°C° 0 mm 3 mps 760 mmHg 53%
14:00 +33°C° 0 mm 3 mps 760 mmHg 51%
15:00 +33°C° 0 mm 3 mps 760 mmHg 49%
16:00 +32°C° 0 mm 2 mps 760 mmHg 54%
17:00 +31°C° 0 mm 2 mps 759 mmHg 59%
18:00 +31°C° 0 mm 2 mps 759 mmHg 63%
19:00 +29°C° 0 mm 2 mps 759 mmHg 69%
20:00 +27°C° 0 mm 2 mps 759 mmHg 75%
21:00 +25°C° 0 mm 2 mps 760 mmHg 80%
22:00 +24°C° 0 mm 2 mps 760 mmHg 81%
23:00 +24°C° 0 mm 2 mps 760 mmHg 82%

23 June, Wednesday

Time Temperature Precipitation Wind Pressure Humidity
00:00 +24°C° 0 mm 1 mps 760 mmHg 84%
01:00 +23°C° 0 mm 2 mps 760 mmHg 85%
02:00 +23°C° 0 mm 2 mps 760 mmHg 86%
03:00 +23°C° 0 mm 2 mps 760 mmHg 87%
04:00 +24°C° 0 mm 2 mps 760 mmHg 84%
05:00 +24°C° 0 mm 2 mps 760 mmHg 81%
06:00 +25°C° 0 mm 2 mps 760 mmHg 79%
07:00 +27°C° 0 mm 2 mps 760 mmHg 73%
08:00 +28°C° 0 mm 3 mps 760 mmHg 67%
09:00 +30°C° 0 mm 3 mps 760 mmHg 61%
10:00 +30°C° 0 mm 3 mps 760 mmHg 58%
11:00 +31°C° 0 mm 2 mps 760 mmHg 54%
12:00 +32°C° 0 mm 2 mps 760 mmHg 51%
13:00 +32°C° 0 mm 2 mps 760 mmHg 49%
14:00 +34°C° 0 mm 3 mps 760 mmHg 46%
15:00 +34°C° 0 mm 3 mps 760 mmHg 44%
16:00 +33°C° 0 mm 3 mps 759 mmHg 50%
17:00 +31°C° 0 mm 3 mps 759 mmHg 56%
18:00 +31°C° 0 mm 2 mps 759 mmHg 62%
19:00 +29°C° 0 mm 2 mps 759 mmHg 65%
20:00 +27°C° 0 mm 2 mps 759 mmHg 68%
21:00 +26°C° 0 mm 2 mps 759 mmHg 71%
22:00 +25°C° 0 mm 2 mps 759 mmHg 73%
23:00 +25°C° 0 mm 2 mps 759 mmHg 75%

24 June, Thursday

Time Temperature Precipitation Wind Pressure Humidity
00:00 +25°C° 0 mm 2 mps 759 mmHg 77%
01:00 +24°C° 0.1 mm 2 mps 759 mmHg 80%
02:00 +23°C° 0.1 mm 1 mps 759 mmHg 82%
03:00 +23°C° 0.1 mm 1 mps 759 mmHg 85%
04:00 +24°C° 0.3 mm 2 mps 759 mmHg 83%
05:00 +25°C° 0.3 mm 2 mps 759 mmHg 81%
06:00 +25°C° 0.3 mm 2 mps 759 mmHg 78%
07:00 +27°C° 0 mm 2 mps 759 mmHg 74%
08:00 +28°C° 0 mm 3 mps 759 mmHg 69%
09:00 +30°C° 0 mm 3 mps 759 mmHg 65%
10:00 +31°C° 0 mm 3 mps 759 mmHg 61%
11:00 +33°C° 0 mm 3 mps 758 mmHg 57%
12:00 +34°C° 0 mm 3 mps 758 mmHg 53%
13:00 +34°C° 0 mm 3 mps 758 mmHg 52%
14:00 +34°C° 0 mm 3 mps 758 mmHg 50%
15:00 +34°C° 0 mm 3 mps 758 mmHg 48%
16:00 +34°C° 0 mm 2 mps 757 mmHg 53%
17:00 +32°C° 0 mm 2 mps 757 mmHg 58%
18:00 +32°C° 0 mm 2 mps 757 mmHg 63%
19:00 +30°C° 0.1 mm 2 mps 757 mmHg 69%
20:00 +28°C° 0.1 mm 2 mps 757 mmHg 75%
21:00 +26°C° 0.1 mm 2 mps 757 mmHg 81%
22:00 +25°C° 0 mm 2 mps 757 mmHg 83%
23:00 +25°C° 0 mm 2 mps 757 mmHg 85%

25 June, Friday

Time Temperature Precipitation Wind Pressure Humidity
00:00 +24°C° 0 mm 2 mps 757 mmHg 88%
01:00 +24°C° 0 mm 2 mps 756 mmHg 88%
02:00 +24°C° 0 mm 2 mps 756 mmHg 88%
03:00 +23°C° 0 mm 2 mps 756 mmHg 88%
04:00 +24°C° 0 mm 2 mps 756 mmHg 84%
05:00 +25°C° 0 mm 2 mps 756 mmHg 80%
06:00 +26°C° 0 mm 2 mps 756 mmHg 76%
07:00 +28°C° 0 mm 3 mps 756 mmHg 71%
08:00 +29°C° 0 mm 3 mps 756 mmHg 66%
09:00 +30°C° 0 mm 4 mps 756 mmHg 61%
10:00 +32°C° 0 mm 4 mps 756 mmHg 59%
11:00 +33°C° 0 mm 4 mps 756 mmHg 56%
12:00 +33°C° 0 mm 4 mps 756 mmHg 54%
13:00 +34°C° 0 mm 4 mps 756 mmHg 54%
14:00 +34°C° 0 mm 4 mps 755 mmHg 53%
15:00 +34°C° 0 mm 5 mps 755 mmHg 52%
16:00 +33°C° 0 mm 4 mps 755 mmHg 57%
17:00 +33°C° 0 mm 4 mps 755 mmHg 63%
18:00 +32°C° 0 mm 4 mps 754 mmHg 68%
19:00 +29°C° 0 mm 3 mps 754 mmHg 72%
20:00 +28°C° 0 mm 3 mps 754 mmHg 77%
21:00 +26°C° 0 mm 2 mps 754 mmHg 82%
22:00 +26°C° 0 mm 2 mps 754 mmHg 81%
23:00 +26°C° 0 mm 3 mps 754 mmHg 80%
Show more